Regional Weather Roundup
Issued by NWS

Home | Current Version | Previous Version | Graphics & Text | Print | Product List | Glossary On
Versions: 1 2 3 4 5 6 7 8 9 10 11 12 13 14 15 16 17 18 19 20 21 22 23 24 25 26 27 28 29 30 31 32 33 34 35 36 37 38 39 40 41 42 43 44 45 46 47 48 49 50
000
ASUS43 KLSX 280807
RWRMO

WEATHER SUMMARY FOR MISSOURI
NATIONAL WEATHER SERVICE SPRINGFIELD MO
300 AM CDT THU MAY 28 2015

NOTE: "FAIR" INDICATES FEW OR NO CLOUDS BELOW 12,000 FEET WITH NO
       SIGNIFICANT WEATHER AND/OR OBSTRUCTIONS TO VISIBILITY.
       CURRENT SKY AND/OR WEATHER CONDITIONS ARE NOT AVAILABLE FOR
       CHILLICOTHE AND FARMINGTON.

MOZ001>031-035>038-043-044-053-054-280900-
...NORTHERN AND WESTERN MISSOURI...

CITY           SKY/WX    TMP DP  RH WIND       PRES   REMARKS
KANSAS CTY INT MOCLDY    66  56  70 SE8       30.08F
KANSAS C DTWN  MOCLDY    66  57  72 E5        30.07F
LEE`S SUMMIT   PTCLDY    65  56  72 SE6       30.09F
ST JOSEPH      CLOUDY    65  57  75 SE6       30.07F
CHILLICOTHE      N/A     61  59  93 CALM      30.13F
KIRKSVILLE     CLEAR     63  57  81 SE5       30.15S

$$
MOZ066>068-077>081-088>096-101>105-280900-
...SOUTHWEST MISSOURI...

CITY           SKY/WX    TMP DP  RH WIND       PRES   REMARKS
SPRINGFIELD    PTCLDY    68  63  84 SE3       30.09F
JOPLIN         PTCLDY    66  62  87 SE3       30.08S

$$
MOZ032>034-039>042-045>050-055>058-069>072-280900-
...CENTRAL MISSOURI...

CITY           SKY/WX    TMP DP  RH WIND       PRES   REMARKS
COLUMBIA       PTCLDY    65  57  75 E6        30.14F
JEFFERSON CITY PTCLDY    61  59  93 CALM      30.12F
ROLLA          MOCLDY    63  58  83 E6        30.12F
SEDALIA        PTCLDY    64  56  75 E6        30.12F
WHITEMAN AFB   PTCLDY    64  57  76 E5        30.09F
WARRENSBURG    MOCLDY    64  55  72 E5        30.09F
OSAGE BEACH    MOCLDY    63  57  82 NE5       30.10F

$$
MOZ051-052-059>065-280900-
...EAST CENTRAL MISSOURI...

CITY           SKY/WX    TMP DP  RH WIND       PRES   REMARKS
ST LOUIS INTL  MOCLDY    67  58  72 CALM      30.15F
SPIRIT OF STL  MOCLDY    60  59  96 CALM      30.14S
ST CHARLES     MOCLDY    61  59  93 CALM      30.13F

$$
MOZ072>076-082>087-097>100-106>115-280900-
...SOUTH CENTRAL AND SOUTHEAST MISSOURI...

CITY           SKY/WX    TMP DP  RH WIND       PRES   REMARKS
CAPE GIRARDEAU MOCLDY    68  67  96 E3        30.14S
FARMINGTON     MOCLDY    63  61  94 CALM      30.18S
POPLAR BLUFF   MOCLDY    68  66  93 NE3       30.13S
WEST PLAINS    CLOUDY    67  65  93 SE3       30.13F

$$



USA.gov is the U.S. government's official web portal to all federal, state and local government web resources and services.